Вернуться в каталог

THOR ABLESTAR DEB

АктивенLEO
NORAD 5715·DEBRIS·🇺🇸 United States

Запущен Jun 29, 1961 с Cape Canaveral Space Force Station

Loading…

Ближайшие Пролёты (ближайшие 24 часа)

TLE

СвежийSource: Space-Track

Эпоха: Sep 13, 2026, 02:08 UTC

1 05715U 61015JS  26256.08942030  .00000623  00000-0  80137-3 0  9991
2 05715  66.5589 250.1882 0152279   1.1661  62.7230 13.64501094213724

Отслеживайте THOR ABLESTAR DEB в реальном времени с AllMySat

Download on the App Store